GHGSAT-C6

导读 | 豆包AI

GHGSAT-C6(又名Mey-Lin)是加拿大GHGSat公司的高分辨率温室气体监测纳卫星,于2023年4月15日搭乘SpaceXTransporter-7拼车任务,在美国范登堡太空军基地发射升空。它是GHGSat温室气体监测星座的第六颗卫星,属于太阳同步轨道,质量约15千克,轨道高度约500千米,设计寿命3年,主要用于高精度监测甲烷等温室气体排放,助力全球碳排放管控与气候变化研究。

基本信息
目录编号:
56204
目录名称:
GHGSAT-C6
国际标识:
2023-054AC
轨道中心:
EARTH
卫星名称:
GHGSAT-C6
卫星全名:
--
卫星状态:
在轨 (已飞行1137 天)
发射日期:
2023-04-15 UTC
国别 :
加拿大 (CA)
星等 :
--
轨道信息
数据来源 国际轨道数据
星历时间: 2026-05-26T14:40:10+0800
6小时前
查看轨道信息
半长轴: 6788.413km
偏心率: 0.000835
轨道倾角: 97.307°
近地点辐角 111.627°
升交点赤经 55.796°
平近点角 248.588°
近地点: 404.607km
远地点: 415.945km
周期: 92.771分钟
每日圈数: 15.522097
详细信息
使用方式:
暂无
2D轨道图
3D轨道图
轨道高度分析图
轨道倾角分析图
轨道综合分析图
查看轨道综合分析图